Location: Beadle
(51.4667°N, 109.0000°W)
Time: 10:31:25
(UTC+00:00)

deb Explorer IX - Pass Details

Date: 06 June 2022
Orbit: 535 x 1068 km, 38.8° (Epoch: 04 July)

Event Time Altitude Azimuth Distance (km) Brightness Sun altitude
Rises 18:43:29 0° 262° (W) 3,854 ? 60.6°
Reaches altitude 10° 18:47:13 10° 245° (WSW) 2,887 ? 60.8°
Maximum altitude 18:51:36 18° 206° (SSW) 2,327 ? 60.9°
Drops below altitude 10° 18:55:51 10° 167° (SSE) 2,768 ? 61.0°
Sets 18:59:20 0° 149° (SSE) 3,633 ? 61.1°
